Regional Weather Roundup
Issued by NWS

Home | Current Version | Previous Version | Graphics & Text | Print | Product List | Glossary On
Versions: 1 2 3 4 5 6 7 8 9 10 11 12 13 14 15 16 17 18 19 20 21 22 23 24 25 26 27 28 29 30 31 32 33 34 35 36 37 38 39 40 41 42 43 44 45 46 47 48 49 50
000
ASUS44 KMEG 240500
RWRTN
TENNESSEE HOURLY STATE WEATHER ROUNDUP
NATIONAL WEATHER SERVICE MEMPHIS TN
1200 AM CDT SUN JUL 24 2016

TNZ002-004-019-021-049-052-054-088>092-240600-
WEST TENNESSEE

CITY           SKY/WX    TMP DP  RH WIND       PRES   REMARKS
MEMPHIS INTL   TSTM      78  72  81 VRB6      29.96F
NWS MEMPHIS      N/A     80 N/A N/A MISG        N/A
JACKSON        MOCLDY    77  76  96 CALM      29.97S
DYERSBURG      CLOUDY    77  75  94 MISG      29.96S
$$

TNZ008-025-027-028-033-062-065-066-240600-
NORTH MIDDLE TENNESSEE

CITY           SKY/WX    TMP DP  RH WIND       PRES   REMARKS
NASHVILLE      PTCLDY    77  70  79 S3        30.01R
CLARKSVILLE    PTCLDY    77  74  90 CALM      29.97F
COOKEVILLE     CLEAR     73  72  94 CALM      30.04S
CROSSVILLE     CLEAR     71  69  93 CALM      30.09F
$$

TNZ061-075-076-078-094-096-097-240600-
SOUTH MIDDLE TENNESSEE

CITY           SKY/WX    TMP DP  RH WIND       PRES   REMARKS
$$

TNZ017-018-042-046-047-240600-
NORTHEAST TENNESSEE

CITY           SKY/WX    TMP DP  RH WIND       PRES   REMARKS
TRI CITIES     PTCLDY    74  68  81 CALM      30.09R
$$

TNZ012-013-036-069-073-074-240600-
CENTRAL EAST TENNESSEE

CITY           SKY/WX    TMP DP  RH WIND       PRES   REMARKS
KNOXVILLE      PTCLDY    75  70  84 CALM      30.05S
OAK RIDGE      CLOUDY    75  71  87 CALM      30.07S
$$

TNZ083-085-099-240600-
SOUTHEAST TENNESSEE

CITY           SKY/WX    TMP DP  RH WIND       PRES   REMARKS
CHATTANOOGA    PTCLDY    78  71  79 CALM      30.03S
$$

SKY/WX REPORTED AS FAIR MEANS FEW OR NO CLOUDS BELOW
12 THOUSAND FEET.





USA.gov is the U.S. government's official web portal to all federal, state and local government web resources and services.